Truckee-Tahoe, CA

9:38 AM PDT on August 18, 2017 (GMT -0700)
Truckee-Tahoe

Weather History for KTRK - January, 2013

Change the Weather History Date:

Monday, January 14, 2013

  Actual Average Record
Temperature  
Mean Temperature 6 °F -  
Max Temperature 23 °F 40 °F 54 °F (1986)
Min Temperature -11 °F 18 °F -11 °F (2013)
Degree Days  
Heating Degree Days 59    
Moisture  
Dew Point -4 °F    
Average Humidity 74    
Maximum Humidity 92    
Minimum Humidity 39    
Precipitation  
Precipitation 0.00 in - - ()
Sea Level Pressure  
Sea Level Pressure 30.29 in    
Wind  
Wind Speed 1 mph (SSW)    
Max Wind Speed 10 mph    
Max Gust Speed -    
Visibility 10 miles    
Events Snow    
Averages and records for this station are not official NWS values.
T = Trace of Precipitation, MM = Missing Value Source: NWS Daily Summary

Daily Weather History Graph

Daily Weather History Graph

Search for Another Location

Airport or City:

Trip Planner

Search our weather history database for the weather conditions in past years. The results will help you decide how hot, cold, wet, or windy it might be!

Date:

Astronomy

Jan. 14, 2013 Rise Set
Actual Time 7:18 AM PST 5:00 PM PST
Civil Twilight 6:49 AM PST 5:30 PM PST
Nautical Twilight 6:16 AM PST 6:03 PM PST
Astronomical Twilight 5:44 AM PST 6:35 PM PST
Moon 8:56 AM PST (1/14) 8:50 PM PST (1/14)
Length of Visible Light 10h 40m
Length of Day
9h 42m
Waxing Crescent, 12% of the Moon is Illuminated
Jan 14
Waxing Crescent
Jan 18
First Quarter
Jan 26
Full
Feb 3
Last Quarter
Feb 9
New

Hourly Weather History & Observations

Time (PST) Temp. Windchill Dew Point Humidity Pressure Visibility Wind Dir Wind Speed Gust Speed Precip Events Conditions
12:15 AM -9.4 °F -18.6 °F -13.0 °F 84% 30.18 in 10.0 mi SSW 3.5 mph - N/A   Clear
12:35 AM -4.0 °F -12.4 °F -9.4 °F 78% 30.18 in 10.0 mi South 3.5 mph - N/A   Clear
12:55 AM -7.6 °F - -13.0 °F 77% 30.18 in 10.0 mi Calm Calm - N/A   Clear
1:15 AM -7.6 °F -16.5 °F -11.2 °F 84% 30.18 in 10.0 mi SSW 3.5 mph - N/A   Clear
1:35 AM -9.4 °F - -13.0 °F 84% 30.18 in 10.0 mi Calm Calm - N/A   Clear
1:55 AM -7.6 °F - -13.0 °F 77% 30.18 in 10.0 mi Calm Calm - N/A   Clear
2:15 AM -7.6 °F - -13.0 °F 77% 30.19 in 10.0 mi Calm Calm - N/A   Clear
2:35 AM -9.4 °F - -14.8 °F 77% 30.19 in 10.0 mi Calm Calm - N/A   Clear
2:55 AM - - - N/A% 30.19 in 10.0 mi Calm Calm - N/A   Clear
3:15 AM -9.4 °F - -13.0 °F 84% 30.19 in 10.0 mi Calm Calm - N/A   Clear
3:35 AM -11.2 °F - -16.6 °F 77% 30.19 in 10.0 mi Calm Calm - N/A   Clear
3:55 AM -11.2 °F - -16.6 °F 77% 30.20 in 10.0 mi Calm Calm - N/A   Clear
4:15 AM -7.6 °F -16.5 °F -11.2 °F 84% 30.20 in 10.0 mi SSW 3.5 mph - N/A   Clear
4:35 AM -9.4 °F - -13.0 °F 84% 30.20 in 10.0 mi Calm Calm - N/A   Clear
4:55 AM -11.2 °F - -16.6 °F 77% 30.21 in 10.0 mi Calm Calm - N/A   Clear
5:15 AM -11.2 °F - -16.6 °F 77% 30.21 in 10.0 mi Calm Calm - N/A   Clear
5:35 AM -9.4 °F - -13.0 °F 84% 30.22 in 10.0 mi Calm Calm - N/A   Clear
6:55 AM -9.4 °F - -14.8 °F 77% 30.25 in 10.0 mi Calm Calm - N/A   Clear
7:45 AM -11.2 °F - -16.6 °F 77% 30.27 in 10.0 mi Calm Calm - N/A   Clear
8:45 AM -7.6 °F - -13.0 °F 77% 30.29 in 10.0 mi Calm Calm - N/A   Partly Cloudy
9:45 AM -2.2 °F - -7.6 °F 78% 30.32 in 10.0 mi Calm Calm - N/A   Clear
10:55 AM 6.8 °F -3.5 °F 1.4 °F 79% 30.28 in 10.0 mi NNE 5.8 mph - N/A   Partly Cloudy
11:45 AM 14.0 °F 1.2 °F 6.8 °F 73% 30.28 in 10.0 mi NNW 10.4 mph - N/A   Partly Cloudy
12:55 PM 19.4 °F - 1.4 °F 46% 30.29 in 10.0 mi Calm Calm - N/A   Clear
1:45 PM 19.4 °F - 1.4 °F 46% 30.29 in 10.0 mi Calm Calm - N/A   Scattered Clouds
2:45 PM 19.4 °F - 1.4 °F 46% 30.32 in 10.0 mi Calm Calm - N/A   Scattered Clouds
3:50 PM 23.0 °F - 1.4 °F 39% 30.33 in 10.0 mi Calm Calm - N/A   Scattered Clouds
4:45 PM 19.4 °F - 1.4 °F 46% 30.32 in 10.0 mi Calm Calm - N/A   Scattered Clouds
4:55 PM 23.0 °F - 1.4 °F 39% 30.33 in 10.0 mi Calm Calm - N/A   Clear
5:15 PM 19.4 °F - 1.4 °F 46% 30.33 in 10.0 mi Calm Calm - N/A Snow Light Snow
5:35 PM 15.8 °F - 3.2 °F 58% 30.33 in 10.0 mi Calm Calm - N/A Snow Light Snow
5:55 PM 17.6 °F - 3.2 °F 53% 30.34 in 10.0 mi Calm Calm - N/A Snow Light Snow
6:15 PM 14.0 °F - 5.0 °F 67% 30.34 in 10.0 mi Calm Calm - N/A Snow Light Snow
6:35 PM 12.2 °F - 5.0 °F 73% 30.34 in 10.0 mi Calm Calm - N/A   Clear
6:55 PM 10.4 °F - 3.2 °F 73% 30.35 in 10.0 mi Calm Calm - N/A   Clear
7:15 PM 10.4 °F - 5.0 °F 79% 30.35 in 10.0 mi Calm Calm - N/A   Clear
7:35 PM 10.4 °F 4.0 °F 3.2 °F 73% 30.36 in 10.0 mi SSW 3.5 mph - N/A   Clear
7:55 PM 6.8 °F - 1.4 °F 79% 30.36 in 10.0 mi Calm Calm - N/A   Clear
8:15 PM 8.6 °F - 3.2 °F 79% 30.36 in 10.0 mi Calm Calm - N/A   Clear
8:35 PM 8.6 °F - 3.2 °F 79% 30.35 in 10.0 mi Calm Calm - N/A   Clear
8:55 PM 8.6 °F - 3.2 °F 79% 30.35 in 10.0 mi Calm Calm - N/A   Clear
9:15 PM 8.6 °F - 5.0 °F 85% 30.36 in 10.0 mi Calm Calm - N/A   Clear
9:35 PM 6.8 °F - 5.0 °F 92% 30.36 in 10.0 mi Calm Calm - N/A   Clear
9:55 PM 5.0 °F - 1.4 °F 85% 30.36 in 10.0 mi Calm Calm - N/A   Clear
10:15 PM 6.8 °F - 3.2 °F 85% 30.37 in 10.0 mi Calm Calm - N/A   Clear
10:35 PM 5.0 °F -2.1 °F 1.4 °F 85% 30.38 in 10.0 mi SSW 3.5 mph - N/A   Clear
10:55 PM 3.2 °F -4.2 °F -0.4 °F 85% 30.39 in 10.0 mi SSE 3.5 mph - N/A   Clear
11:15 PM 5.0 °F - 1.4 °F 85% 30.37 in 10.0 mi Calm Calm - N/A   Clear
11:35 PM 5.0 °F - 1.4 °F 85% 30.38 in 10.0 mi Calm Calm - N/A   Clear
11:55 PM 1.4 °F - -0.4 °F 92% 30.39 in 10.0 mi Calm Calm - N/A   Clear